Weather History for Herbert Island, BC

Change the Weather History Date:

Sunday, January 20, 2013

  Actual Average Record
Temperature  
Mean Temperature 42 °F -  
Max Temperature 44 °F - - ()
Min Temperature 40 °F - - ()
Degree Days  
Heating Degree Days 23    
Moisture  
Dew Point 37 °F    
Average Humidity 83    
Maximum Humidity 89    
Minimum Humidity 70    
Precipitation  
Precipitation 0.00 in - - ()
Sea Level Pressure  
Sea Level Pressure 30.32 in    
Wind  
Wind Speed 7 mph ()    
Max Wind Speed 14 mph    
Max Gust Speed -    
T = Trace of Precipitation, MM = Missing Value Source: Averaged Metar Reports

Daily Weather History Graph

Daily Weather History Graph

Search for Another Location

Airport:

Trip Planner

Search our weather history database for the weather conditions in past years. The results will help you decide how hot, cold, wet, or windy it might be!

Date:

Astronomy

Jan. 20, 2013 Rise Set
Actual Time 8:21 AM PST 5:02 PM PST
Civil Twilight 7:44 AM PST 5:39 PM PST
Nautical Twilight 7:03 AM PST 6:20 PM PST
Astronomical Twilight 6:24 AM PST 6:59 PM PST
Moon 12:08 PM PST (1/20) 2:57 AM PST (1/20)
Length of Visible Light 9h 54m
Length of Day
8h 40m
Waxing Gibbous, 67% of the Moon is Illuminated
Jan 20
Waxing Gibbous
Jan 26
Full
Feb 3
Last Quarter
Feb 9
New
Feb 17
First Quarter

Hourly Weather History & Observations

Time (PST) Temp. Windchill Dew Point Humidity Pressure Visibility Wind Dir Wind Speed Gust Speed Precip Events Conditions
12:00 AM 42.8 °F 36.2 °F 38.3 °F 84% 30.32 in - SSE 12.7 mph - N/A   Unknown
1:00 AM 43.0 °F 36.4 °F 39.0 °F 86% 30.33 in - SSE 12.7 mph - N/A   Unknown
2:00 AM 42.6 °F 35.6 °F 38.1 °F 84% 30.33 in - SSE 13.8 mph - N/A   Unknown
3:00 AM 41.7 °F 34.8 °F 37.2 °F 84% 30.33 in - SSE 12.7 mph - N/A   Unknown
4:00 AM 42 °F - 38 °F 79% 30.34 in - SSE 10.4 mph - -  
4:00 AM 41.5 °F 35.4 °F 37.8 °F 86% 30.34 in - SSE 10.4 mph - N/A   Unknown
5:00 AM 41.7 °F 36.7 °F 37.2 °F 84% 30.35 in - South 8.1 mph - N/A   Unknown
6:00 AM 41.2 °F 38.2 °F 36.1 °F 82% 30.34 in - South 4.6 mph - N/A   Unknown
7:00 AM 40.8 °F 38.8 °F 36.1 °F 83% 30.33 in - SE 3.5 mph - N/A   Unknown
8:00 AM 40.5 °F 36.5 °F 37.2 °F 88% 30.32 in - East 5.8 mph - N/A   Unknown
9:00 AM 41.2 °F 36.6 °F 37.8 °F 88% 30.33 in - SE 6.9 mph - N/A   Unknown
10:00 AM 41 °F - 37 °F 79% 30.35 in - SE 8.1 mph - -  
10:00 AM 41.4 °F 36.2 °F 36.7 °F 83% 30.35 in - SE 8.1 mph - N/A   Unknown
11:00 AM 41.2 °F 36.6 °F 36.0 °F 82% 30.36 in - SSE 6.9 mph - N/A   Unknown
12:00 PM 41.7 °F 39.8 °F 35.8 °F 79% 30.36 in - SSW 3.5 mph - N/A   Unknown
1:00 PM 41.7 °F 39.8 °F 35.1 °F 77% 30.34 in - East 3.5 mph - N/A   Unknown
2:00 PM 42.8 °F 39.3 °F 36.9 °F 80% 30.33 in - NE 5.8 mph - N/A   Unknown
3:00 PM 42.6 °F 40.9 °F 36.3 °F 78% 30.32 in - East 3.5 mph - N/A   Unknown
4:00 PM 43 °F - 36 °F 70% 30.32 in - SE 2.3 mph - -  
4:00 PM 42.8 °F - 36.5 °F 78% 30.32 in - SE 2.3 mph - N/A   Unknown
5:00 PM 43.0 °F 41.3 °F 37.2 °F 80% 30.30 in - SSE 3.5 mph - N/A   Unknown
6:00 PM 42.3 °F 39.4 °F 37.6 °F 83% 30.29 in - SSE 4.6 mph - N/A   Unknown
7:00 PM 42.3 °F - 37.8 °F 84% 30.29 in - SSE 2.3 mph - N/A   Unknown
8:00 PM 41.9 °F - 38.1 °F 86% 30.28 in - SSE 2.3 mph - N/A   Unknown
9:00 PM 41.7 °F 38.8 °F 38.1 °F 87% 30.28 in - ENE 4.6 mph - N/A   Unknown
10:00 PM 41 °F - 37 °F 82% 30.28 in - East 4.6 mph - -  
10:00 PM 41.4 °F 38.4 °F 37.4 °F 86% 30.28 in - East 4.6 mph - N/A   Unknown
11:00 PM 41.0 °F 36.4 °F 38.1 °F 89% 30.27 in - East 6.9 mph - N/A   Unknown